Location: Byhalia Creek
(34.8270°N, 89.8040°W)
Time: 20:25:50
(UTC+00:00)

Milstar 3 - Pass Details

Date: 22 April 2026
Orbit: 1097 x 5148 km, 28.2° (Epoch: 21 May)

Event Time Altitude Azimuth Distance (km) Brightness Sun altitude
Rises 01:15:21 0° 203° (SSW) 3,944 5.7 -8.4°
Reaches altitude 10° 01:18:45 10° 184° (S) 3,152 5.0 -9.0°
Maximum altitude 01:23:49 19° 141° (SE) 2,920 4.5 -10.0°
Enters shadow 01:29:08 12° 105° (ESE) 3,931 5.0 -11.0°
